{"data":{"norad_id":56509,"intl_designator":"2023-065G","name":"STARLINK-5334","alt_names":[],"object_type":"PAYLOAD","status":"ACTIVE","operator":null,"country":"US","launch_date":"2023-05-14","launch_site_code":"AFETR","launch_vehicle":null,"mission":null,"orbit_class":"UNKNOWN","rcs_meters":null,"size_class":null,"mass_kg":null,"dimensions":null,"purposes":["comms"],"wikipedia_slug":null,"has_3d_model":false,"image_url":null,"decayed_at":null,"tle_current":{"epoch":"2026-09-20T03:45:15.972768Z","epoch_age_seconds":144631,"freshness":"FRESH","line1":"1 56509U 23065G   26263.15643487 -.00000134  00000+0  46437-5 0  9995","line2":"2 56509  43.0006 194.0025 0001196 257.7571 102.3147 15.27577460186346","mean_motion":15.2757746,"eccentricity":0.0001196,"inclination_deg":43.0006,"raan_deg":194.0025,"arg_perigee_deg":257.7571,"mean_anomaly_deg":102.3147,"bstar":4.6437e-6,"rev_number":18634,"period_min":94.266905456958,"perigee_km":482.23610295723,"apogee_km":483.87730049068,"semimajor_km":6861.193701724,"source":"CELESTRAK","updated_at":"2026-09-21T09:00:33.470155Z"}}}